CW8484 Weather Reports


Display with metric or nautical units.
time (UTC)temp
F
wind
direction
speed
MPH
gust
MPH
rain 1hr
in
rain 24hr
in
rain mn
in
humidity
%
barometer
mb
20260902031404 65 136 0.0 4.0 0.00 0.00 0.00 83 1015.9
20260902030403 65 164 1.0 5.0 0.00 0.00 0.00 82 1015.8
20260902025403 65 148 0.0 8.0 0.00 0.00 0.00 82 1015.7
20260902024403 65 94 1.0 8.0 0.00 0.00 0.00 83 1015.6
20260902023402 65 172 1.0 7.0 0.00 0.00 0.00 83 1015.6
20260902022403 65 179 1.0 5.0 0.00 0.00 0.00 84 1015.5
20260902021404 65 165 0.0 6.0 0.00 0.00 0.00 84 1015.7
20260902020425 64 176 0.0 5.0 0.00 0.00 0.00 84 1015.6
20260902015403 65 201 0.0 7.0 0.00 0.00 0.00 84 1015.7
20260902014403 65 164 1.0 7.0 0.00 0.00 0.00 84 1015.7
20260902013403 65 180 0.0 3.0 0.00 0.00 0.00 84 1015.7
20260902012403 65 187 0.0 5.0 0.00 0.00 0.00 84 1015.7
20260902011403 65 189 0.0 2.0 0.00 0.00 0.00 85 1015.7
20260902010403 65 181 0.0 7.0 0.00 0.00 0.00 85 1015.7
20260902005404 65 157 0.0 2.0 0.00 0.00 0.00 85 1015.7
20260902004403 65 157 0.0 1.0 0.00 0.00 0.00 85 1015.6
20260902003404 65 152 0.0 2.0 0.00 0.00 0.00 85 1015.5
20260902002403 66 216 0.0 2.0 0.00 0.00 0.00 85 1015.3
20260902001403 66 218 0.0 0.0 0.00 0.00 0.00 85 1015.3
20260902000403 66 218 0.0 0.0 0.00 0.00 0.00 85 1015.3
20260901235403 67 218 0.0 0.0 0.00 0.00 0.00 85 1015.4
20260901234403 67 218 0.0 0.0 0.00 0.00 0.00 84 1015.6
20260901233403 68 218 0.0 0.0 0.00 0.00 0.00 84 1015.6
20260901232403 68 218 0.0 0.0 0.00 0.00 0.00 83 1015.5
20260901231403 69 218 0.0 0.0 0.00 0.00 0.00 83 1015.4
20260901230424 70 218 0.0 0.0 0.00 0.00 0.00 82 1015.5
20260901225403 70 218 0.0 0.0 0.00 0.00 0.00 80 1015.4
20260901224403 71 218 0.0 0.0 0.00 0.00 0.00 80 1015.3
20260901223403 71 218 0.0 0.0 0.00 0.00 0.00 79 1015.1
20260901222403 72 218 0.0 0.0 0.00 0.00 0.00 78 1015.1
20260901221424 72 218 0.0 0.0 0.00 0.00 0.00 79 1015.0
20260901220403 73 218 0.0 0.0 0.00 0.00 0.00 77 1014.9
20260901215403 73 218 0.0 0.0 0.00 0.00 0.00 75 1014.9
20260901214403 73 218 0.0 1.0 0.00 0.00 0.00 74 1014.7
20260901213403 73 218 0.0 3.0 0.00 0.00 0.00 73 1014.9
20260901212403 74 217 0.0 0.0 0.00 0.00 0.00 74 1014.9
20260901211403 74 216 0.0 2.0 0.00 0.00 0.00 69 1014.9
20260901210403 75 215 1.0 2.0 0.00 0.00 0.00 67 1015.0
20260901205424 76 215 0.0 3.0 0.00 0.00 0.00 71 1014.9
20260901204403 77 213 0.0 4.0 0.00 0.00 0.00 65 1014.7
20260901203403 79 207 1.0 7.0 0.00 0.00 0.00 59 1014.6
20260901202403 80 241 0.0 5.0 0.00 0.00 0.00 63 1014.4
20260901201402 79 262 0.0 6.0 0.00 0.00 0.00 66 1014.4
20260901200403 79 335 1.0 3.0 0.00 0.00 0.00 65 1014.4
20260901195403 78 355 0.0 3.0 0.00 0.00 0.00 67 1014.3
20260901194406 77 15 0.0 3.0 0.00 0.00 0.00 66 1014.5
20260901193403 77 13 0.0 1.0 0.00 0.00 0.00 69 1014.6
20260901192402 76 13 0.0 4.0 0.00 0.00 0.00 64 1014.5
20260901191403 76 13 0.0 3.0 0.00 0.00 0.00 60 1014.5
20260901190403 77 359 1.0 4.0 0.00 0.00 0.00 58 1014.5
20260901185403 78 354 0.0 5.0 0.00 0.00 0.00 60 1014.6
20260901184402 79 348 2.0 5.0 0.00 0.00 0.00 59 1014.5
20260901183403 79 300 1.0 4.0 0.00 0.00 0.00 55 1014.6
20260901182402 79 256 0.0 6.0 0.00 0.00 0.00 63 1014.8
20260901181403 78 22 0.0 4.0 0.00 0.00 0.00 56 1015.0
20260901180424 79 25 0.0 5.0 0.00 0.00 0.00 61 1014.9
20260901175403 79 15 2.0 8.0 0.00 0.00 0.00 58 1014.9
20260901174402 79 357 2.0 5.0 0.00 0.00 0.00 55 1014.8
20260901172530 78 355 0.0 2.0 0.00 0.00 0.00 60 1014.8
20260901171403 78 7 1.0 5.0 0.00 0.00 0.00 60 1014.9
20260901170403 77 329 1.0 5.0 0.00 0.00 0.00 59 1014.9
20260901165402 76 328 0.0 9.0 0.00 0.00 0.00 60 1015.0
20260901164403 77 72 0.0 4.0 0.00 0.00 0.00 59 1015.2
20260901163403 77 67 3.0 5.0 0.00 0.00 0.00 60 1015.3
20260901161403 75 61 0.0 2.0 0.00 0.00 0.00 57 1015.5
20260901160402 75 66 0.0 3.0 0.00 0.00 0.00 62 1015.6
20260901155402 76 67 0.0 4.0 0.00 0.00 0.00 60 1015.5
20260901152403 75 316 0.0 4.0 0.00 0.00 0.00 65 1015.5
20260901151402 75 312 0.0 4.0 0.00 0.00 0.00 68 1015.5
20260901150402 74 315 0.0 1.0 0.00 0.00 0.00 68 1015.6
20260901145403 73 315 0.0 3.0 0.00 0.00 0.00 72 1015.6
20260901144403 72 315 0.0 3.0 0.00 0.00 0.00 70 1015.7
20260901143403 70 38 0.0 1.0 0.00 0.00 0.00 71 1015.5
20260901142403 69 38 0.0 0.0 0.00 0.00 0.00 69 1015.4
20260901141402 68 38 0.0 3.0 0.00 0.00 0.00 69 1015.5
20260901140403 68 38 0.0 3.0 0.00 0.00 0.00 77 1015.5
20260901134403 65 38 0.0 2.0 0.00 0.00 0.00 79 1015.4
20260901133425 63 38 0.0 3.0 0.00 0.00 0.00 80 1015.6
20260901132403 63 39 0.0 2.0 0.00 0.00 0.00 80 1015.5
20260901131403 62 39 0.0 1.0 0.00 0.00 0.00 83 1015.8
20260901130403 61 39 0.0 0.0 0.00 0.00 0.00 87 1015.8
20260901125403 61 39 0.0 0.0 0.00 0.00 0.00 87 1015.9
20260901124403 60 39 0.0 0.0 0.00 0.00 0.00 88 1016.1
20260901123425 60 39 0.0 0.0 0.00 0.00 0.00 88 1016.0
20260901122404 60 39 0.0 0.0 0.00 0.00 0.00 88 1015.9
20260901121403 59 39 0.0 2.0 0.00 0.00 0.00 85 1016.0
20260901120404 59 39 0.0 1.0 0.00 0.00 0.00 87 1016.1
20260901115403 59 39 0.0 0.0 0.00 0.00 0.00 88 1016.0
20260901114404 59 39 0.0 0.0 0.00 0.00 0.00 87 1016.0
20260901113403 59 39 0.0 0.0 0.00 0.00 0.00 87 1016.0
20260901112404 59 39 0.0 0.0 0.00 0.00 0.00 86 1016.0
20260901111424 59 39 0.0 3.0 0.00 0.00 0.00 84 1015.8
20260901105403 59 334 0.0 0.0 0.00 0.00 0.00 86 1015.6
20260901104404 59 334 0.0 3.0 0.00 0.00 0.00 85 1015.6
20260901103403 58 332 0.0 2.0 0.00 0.00 0.00 86 1015.6
20260901102404 58 320 0.0 1.0 0.00 0.00 0.00 86 1015.7
20260901101403 58 321 0.0 0.0 0.00 0.00 0.00 88 1015.6
20260901100424 59 321 0.0 0.0 0.00 0.00 0.00 88 1015.7
20260901095403 59 321 0.0 0.0 0.00 0.00 0.00 86 1015.6
20260901094424 58 321 0.0 1.0 0.00 0.00 0.00 85 1015.7
20260901093404 58 321 0.0 1.0 0.00 0.00 0.00 86 1015.8
20260901092403 58 321 0.0 0.0 0.00 0.00 0.00 87 1015.8
20260901091424 58 321 0.0 0.0 0.00 0.00 0.00 87 1015.5
20260901090404 58 321 0.0 2.0 0.00 0.00 0.00 85 1015.6
20260901085403 58 321 0.0 2.0 0.00 0.00 0.00 85 1015.4
20260901084403 58 321 0.0 0.0 0.00 0.00 0.00 85 1015.5
20260901083403 58 321 0.0 0.0 0.00 0.00 0.00 86 1015.5
20260901082424 58 321 0.0 0.0 0.00 0.00 0.00 86 1015.6
20260901081403 58 321 0.0 1.0 0.00 0.00 0.00 87 1015.5
20260901080424 57 320 0.0 3.0 0.00 0.00 0.00 88 1015.6
20260901075403 56 321 0.0 0.0 0.00 0.00 0.00 90 1015.7
20260901074403 56 321 0.0 1.0 0.00 0.00 0.00 91 1015.7
20260901073404 55 321 0.0 0.0 0.00 0.00 0.00 92 1015.7
20260901072403 56 321 0.0 0.0 0.00 0.00 0.00 92 1015.6
20260901071403 56 321 0.0 1.0 0.00 0.00 0.00 92 1015.6
20260901070403 56 321 0.0 0.0 0.00 0.00 0.00 93 1015.8
20260901065403 55 321 0.0 0.0 0.00 0.00 0.00 93 1015.9
20260901064403 55 321 0.0 0.0 0.00 0.00 0.00 94 1015.9
20260901063425 54 321 0.0 0.0 0.00 0.00 0.00 93 1016.3
20260901062403 54 321 0.0 0.0 0.00 0.00 0.00 92 1016.1
20260901061403 53 321 0.0 3.0 0.00 0.00 0.00 92 1016.4
20260901060403 53 283 0.0 2.0 0.00 0.00 0.00 91 1016.3
20260901055403 53 283 0.0 0.0 0.00 0.00 0.00 91 1016.6
20260901054403 53 283 0.0 0.0 0.00 0.00 0.00 91 1016.6
20260901053445 53 283 0.0 0.0 0.00 0.00 0.00 90 1016.4
20260901052403 53 283 0.0 0.0 0.00 0.00 0.00 90 1016.5
20260901051403 53 283 0.0 0.0 0.00 0.00 0.00 90 1016.4
20260901050424 53 283 0.0 0.0 0.00 0.00 0.00 89 1016.5
20260901045403 54 283 0.0 0.0 0.00 0.00 0.00 89 1016.6
20260901044424 54 283 0.0 0.0 0.00 0.00 0.00 89 1016.5
20260901043403 54 283 0.0 0.0 0.00 0.00 0.00 88 1016.6
20260901042403 55 283 0.0 0.0 0.00 0.00 0.00 88 1016.6
20260901041424 55 283 0.0 0.0 0.00 0.00 0.00 88 1016.5
20260901040403 55 283 0.0 0.0 0.00 0.00 0.00 88 1016.5
20260901035403 56 283 0.0 0.0 0.00 0.00 0.00 87 1016.5
20260901034424 56 283 0.0 0.0 0.00 0.00 0.00 87 1016.3
20260901033403 56 283 0.0 0.0 0.00 0.00 0.00 88 1016.3
20260901032402 57 283 0.0 0.0 0.00 0.00 0.00 88 1016.4